Regional Weather Roundup
Issued by NWS

Home | Current Version | Previous Version | Graphics & Text | Print | Product List | Glossary On
Versions: 1 2 3 4 5 6 7 8 9 10 11 12 13 14 15 16 17 18 19 20 21 22 23 24 25 26 27 28 29 30 31 32 33 34 35 36 37 38 39 40 41 42 43 44 45 46 47 48
000
ASUS43 KDMX 220007
RWRIA

WEATHER ROUNDUP FOR IOWA
NATIONAL WEATHER SERVICE DES MOINES IA
700 PM CDT THU AUG 21 2014

NOTE: "FAIR" INDICATES FEW OR NO CLOUDS BELOW 12,000 FEET WITH NO
SIGNIFICANT WEATHER AND/OR OBSTRUCTIONS TO VISIBILITY.

* - THESE STATIONS ARE NOT NWS STATIONS...THUS NOT UNDER NWS
QUALITY CONTROL.  THEY ALSO DO NOT REPORT WEATHER SUCH
AS PRECIPITATION OR FOG.

IAZ001>003-012>014-020>022-031>034-043>046-220100-
   NORTHWEST IOWA

CITY           SKY/WX    TMP DP  RH WIND       PRES   REMARKS
CARROLL *      SUNNY     84  75  74 SW6       29.86S HX  92
CHEROKEE *     SUNNY     86  77  75 CALM      29.84R HX  96
DENISON *      SUNNY     86  75  70 S5        29.83F HX  95
LE MARS *      SUNNY     86  75  70 SW3       29.83F HX  95
ORANGE CITY *  SUNNY     86  75  70 SW3       29.85R HX  95
SHELDON *      MOSUNNY   84  77  79 SW7       29.83R HX  94
SIOUX CITY     SUNNY     89  76  65 W3        29.82S HX 100
6HR MIN TEMP:  87; 6HR MAX TEMP:  92;

SPENCER        SUNNY     85  75  72 SW7       29.84R HX  93
6HR MIN TEMP:  84; 6HR MAX TEMP:  87;

STORM LAKE *   PTSUNNY   84  81  89 S5        29.86S HX  98
$$

IAZ055>058-069>071-079>083-090>094-220100-
   SOUTHWEST IOWA

CITY           SKY/WX    TMP DP  RH WIND       PRES   REMARKS
ATLANTIC *     SUNNY     84  77  79 S6        29.85F HX  94
AUDUBON *      SUNNY     86  81  84 S6        29.87F HX 102
CLARINDA *     SUNNY     88  81  79 CALM      29.84S HX 105
COUNCIL BLFS * SUNNY     86  77  74 SE6       29.83F HX  97
CRESTON *      SUNNY     84  79  84 S6        29.87S HX  96
HARLAN  *      SUNNY     84  77  79 S7        29.88F HX  94
LAMONI         MOSUNNY   86  76  71 S5        29.86F HX  96
6HR MIN TEMP:  83; 6HR MAX TEMP:  88;

RED OAK *      MOSUNNY   86  79  79 N7        29.84F HX  99
SHENANDOAH *   SUNNY     88  81  79 N6        29.82F HX 105
$$

IAZ047>049-059>061-072>074-084-220100-
   CENTRAL IOWA

CITY           SKY/WX    TMP DP  RH WIND       PRES   REMARKS
AMES           SUNNY     83  74  74 SW5       29.85S HX  89
6HR MIN TEMP:  81; 6HR MAX TEMP:  86;

ANKENY *       SUNNY     86  75  70 S9        29.84S HX  95
CHARITON *     SUNNY     84  79  84 S5        29.87F HX  96
DES MOINES     MOSUNNY   86  75  69 S9        29.84F HX  95
6HR MIN TEMP:  83; 6HR MAX TEMP:  88;

GRINNELL*      MOSUNNY   82  75  78 S9        29.88S HX  89
KNOXVILLE *    MOSUNNY   84  77  79 S7        29.86F HX  94
MARSHALLTOWN   PTSUNNY   83  76  79 S7        29.86S HX  91
6HR MIN TEMP:  80; 6HR MAX TEMP:  85;

PELLA *        MOSUNNY   84  77  78 SE3       29.88F HX  94
PERRY *          N/A     82  75  78 SW7       29.85S HX  89
$$

IAZ004>006-015-016-023>025-035-036-220100-
   NORTH CENTRAL IOWA

CITY           SKY/WX    TMP DP  RH WIND       PRES   REMARKS
ALGONA *       CLOUDY    84  75  74 SW8       29.85S HX  92
CLARION *      MOSUNNY   84  75  74 SW7       29.86S HX  92
ESTHERVILLE    MOSUNNY   83  74  74 SW7       29.83S HX  89
6HR MIN TEMP:  82; 6HR MAX TEMP:  86;

FORT DODGE *   SUNNY     82  73  74 SW10      29.86S HX  88
MASON CITY     SUNNY     84  72  67 SW13      29.87S HX  89
6HR MIN TEMP:  82; 6HR MAX TEMP:  89;

FOREST CITY *  MOSUNNY   82  73  74 S7        29.85S HX  88
IOWA FALLS *   PTSUNNY   82  74  74 S6        29.88S HX  88
$$

IAZ007>011-017>019-026>030-037>042-050>054-066-220100-
   NORTHEAST IOWA

CITY           SKY/WX    TMP DP  RH WIND       PRES   REMARKS
CEDAR RAPIDS   PTCLDY    80  74  81 S9        29.87S HX  85
6HR MIN TEMP:  75; 6HR MAX TEMP:  81; 6HR PCP:  0.18;

CHARLES CITY * PTSUNNY   82  73  74 S9        29.87F HX  88
CLINTON *      CLOUDY    75  73  94 S15       29.89S
DECORAH *      MOCLDY    77  72  83 VRB6G12   29.89R
DUBUQUE        CLOUDY    75  71  87 SW9       29.89R
6HR MIN TEMP:  74; 6HR MAX TEMP:  76; 6HR PCP:  0.05;

MONTICELLO *   CLEAR     77  73  88 S7        29.88S
OELWEIN *      CLEAR     79  72  78 S8        29.90S HX  82
WATERLOO       MOSUNNY   82  71  69 S9        29.86S HX  86
6HR MIN TEMP:  77; 6HR MAX TEMP:  85;

$$

IAZ064-065-067-068-078-220100-
   EAST CENTRAL IOWA

CITY           SKY/WX    TMP DP  RH WIND       PRES   REMARKS
DAVENPORT      CLOUDY    77  73  87 SE8       29.89F
6HR MIN TEMP:  76; 6HR MAX TEMP:  80; 6HR PCP:  0.13;

IOWA CITY      MOCLDY    80  76  87 S9        29.89S HX  86
6HR MIN TEMP:  77; 6HR MAX TEMP:  82; 6HR PCP:  0.11;

MT. PLEASANT * PTCLDY    84  74  73 S5        29.88F HX  91
MUSCATINE *    MOCLDY    84  75  74 S6        29.88S HX  92
QUAD CITIES    MOCLDY    82  74  76 SE3       29.88F HX  88
6HR MIN TEMP:  81; 6HR MAX TEMP:  87; 6HR PCP: TRACE;

$$

IAZ062-063-075>077-085>089-095>099-220100-
   SOUTHEAST IOWA

CITY           SKY/WX    TMP DP  RH WIND       PRES   REMARKS
BURLINGTON     LGT RAIN  86  77  74 S7        29.88F HX  97
6HR MIN TEMP:  84; 6HR MAX TEMP:  88; 6HR PCP: TRACE;

FAIRFIELD *    MOCLDY    84  77  79 SE6       29.88F HX  94
FORT MADISON * CLEAR     88  79  74 S3        29.89F HX 102
KEOKUK *       CLEAR     86  79  79 S6        29.88F HX  99
OSKALOOSA *    CLOUDY    82  77  85 SE5       29.88F HX  89
CENTERVILLE *  SUNNY     84  77  79 S6        29.90S HX  94
OTTUMWA        CLOUDY    83  77  82 SE3       29.88R HX  92
6HR MIN TEMP:  81; 6HR MAX TEMP:  86; 6HR PCP: TRACE;

WASHINGTON *   MOCLDY    82  77  83 SE3       29.88F HX  91
$$

ABBREVIATIONS USED IN REMARKS
   TC - TEMPERATURES IN CELSIUS
  WCI - WIND CHILL INDEX
   HX - HEAT INDEX
  VSB - VISIBILITY
$$



USA.gov is the U.S. government's official web portal to all federal, state and local government web resources and services.